SR9NCI Weather Reports


Display with metric or nautical units.
time (UTC)temp
F
wind
direction
speed
MPH
gust
MPH
rain 1hr
in
rain 24hr
in
rain mn
in
humidity
%
barometer
mb
20220118101249 35 312 6.0 10.0 0.00 0.00 0.00
20220118100848 35 314 6.0 9.0 0.00 0.00 0.00
20220118100044 34 321 6.0 9.0 0.00 0.00 0.00
20220118095643 35 304 8.0 16.0 0.00 0.00 0.00
20220118094833 34 313 7.0 12.0 0.00 0.00 0.00
20220118094431 35 309 5.0 10.0 0.00 0.00 0.00
20220118094029 35 321 6.0 10.0 0.00 0.00 0.00
20220118093628 36 306 4.0 8.0 0.00 0.00 0.00
20220118093226 34 309 6.0 10.0 0.00 0.00 0.00
20220118092825 36 316 6.0 9.0 0.00 0.00 0.00
20220118092422 35 314 6.0 13.0 0.00 0.00 0.00
20220118092021 35 319 6.0 9.0 0.00 0.00 0.00
20220118091620 35 304 3.0 5.0 0.00 0.00 0.00
20220118091218 35 310 6.0 11.0 0.00 0.00 0.00
20220118090809 34 318 5.0 9.0 0.00 0.00 0.00
20220118090407 35 308 5.0 9.0 0.00 0.00 0.00
20220118090006 34 310 5.0 9.0 0.00 0.00 0.00
20220118085605 34 319 5.0 10.0 0.00 0.00 0.00
20220118085202 34 301 5.0 9.0 0.00 0.00 0.00
20220118084359 33 298 5.0 10.0 0.00 0.00 0.00
20220118083958 34 300 7.0 11.0 0.00 0.00 0.00
20220118083557 34 305 5.0 9.0 0.00 0.00 0.00
20220118083154 34 308 7.0 11.0 0.00 0.00 0.00
20220118082746 33 301 4.0 7.0 0.00 0.00 0.00
20220118082345 33 305 5.0 9.0 0.00 0.00 0.00
20220118081944 33 313 5.0 9.0 0.00 0.00 0.00
20220118081541 33 311 5.0 7.0 0.00 0.00 0.00
20220118081140 33 305 4.0 8.0 0.00 0.00 0.00
20220118080739 34 317 4.0 8.0 0.00 0.00 0.00
20220118080337 33 302 5.0 8.0 0.00 0.00 0.00
20220118075533 33 301 7.0 10.0 0.00 0.00 0.00
20220118075130 33 318 4.0 7.0 0.00 0.00 0.00
20220118074722 32 299 6.0 9.0 0.00 0.00 0.00
20220118074319 33 309 7.0 10.0 0.00 0.00 0.00
20220118073918 33 296 7.0 11.0 0.00 0.00 0.00
20220118073517 34 296 5.0 9.0 0.00 0.00 0.00
20220118073115 33 304 8.0 12.0 0.00 0.00 0.00
20220118072311 33 298 8.0 12.0 0.00 0.00 0.00
20220118071910 33 310 6.0 12.0 0.00 0.00 0.00
20220118071509 33 283 6.0 9.0 0.00 0.00 0.00
20220118071107 33 301 9.0 14.0 0.00 0.00 0.00
20220118070257 33 290 7.0 10.0 0.00 0.00 0.00
20220118065856 33 302 8.0 11.0 0.00 0.00 0.00
20220118065455 32 291 9.0 18.0 0.00 0.00 0.00
20220118065052 34 310 9.0 14.0 0.00 0.00 0.00
20220118064651 32 292 7.0 9.0 0.00 0.00 0.00
20220118064249 32 290 11.0 17.0 0.00 0.00 0.00
20220118063847 33 293 8.0 16.0 0.00 0.00 0.00
20220118063445 33 301 8.0 13.0 0.00 0.00 0.00
20220118063043 33 292 8.0 11.0 0.00 0.00 0.00
20220118062636 33 287 8.0 11.0 0.00 0.00 0.00
20220118062233 33 292 8.0 11.0 0.00 0.00 0.00
20220118061833 33 308 8.0 13.0 0.00 0.00 0.00
20220118061028 33 289 8.0 13.0 0.00 0.00 0.00
20220118060628 33 302 6.0 13.0 0.00 0.00 0.00
20220118060226 33 305 7.0 10.0 0.00 0.00 0.00
20220118055824 33 300 8.0 13.0 0.00 0.00 0.00
20220118055423 33 294 6.0 10.0 0.00 0.00 0.00
20220118055021 33 303 8.0 13.0 0.00 0.00 0.00
20220118054613 33 305 6.0 14.0 0.00 0.00 0.00
20220118054210 33 298 6.0 12.0 0.00 0.00 0.00
20220118053809 33 292 9.0 15.0 0.00 0.00 0.00
20220118053408 33 307 11.0 16.0 0.00 0.00 0.00
20220118053006 34 300 8.0 14.0 0.00 0.00 0.00
20220118052603 34 288 8.0 15.0 0.00 0.00 0.00
20220118052202 33 298 10.0 13.0 0.00 0.00 0.00
20220118051801 34 290 6.0 11.0 0.00 0.00 0.00
20220118051400 33 293 7.0 11.0 0.00 0.00 0.00
20220118050958 33 303 8.0 10.0 0.00 0.00 0.00
20220118050549 34 290 7.0 10.0 0.00 0.00 0.00
20220118050147 33 303 10.0 14.0 0.00 0.00 0.00
20220118045824 34 291 11.0 16.0 0.00 0.00 0.00
20220118045746 34 291 11.0 16.0 0.00 0.00 0.00
20220118044942 33 298 9.0 12.0 0.00 0.00 0.00
20220118044541 34 289 8.0 11.0 0.00 0.00 0.00
20220118044139 33 293 11.0 16.0 0.00 0.00 0.00
20220118043738 34 287 8.0 12.0 0.00 0.00 0.00
20220118042934 33 292 9.0 12.0 0.00 0.00 0.00
20220118042526 34 289 7.0 10.0 0.00 0.00 0.00
20220118042124 34 302 8.0 11.0 0.00 0.00 0.00
20220118041722 34 300 9.0 14.0 0.00 0.00 0.00
20220118041321 34 294 8.0 10.0 0.00 0.00 0.00
20220118040919 33 306 5.0 10.0 0.00 0.00 0.00
20220118040518 34 290 8.0 12.0 0.00 0.00 0.00
20220118040116 34 292 6.0 8.0 0.00 0.00 0.00
20220118035714 34 294 8.0 12.0 0.00 0.00 0.00
20220118035313 34 288 11.0 16.0 0.00 0.00 0.00
20220118034911 34 285 6.0 10.0 0.00 0.00 0.00
20220118034503 34 292 6.0 10.0 0.00 0.00 0.00
20220118034100 34 279 4.0 6.0 0.00 0.00 0.00
20220118033659 34 285 5.0 10.0 0.00 0.00 0.00
20220118033258 35 280 7.0 10.0 0.00 0.00 0.00
20220118032855 34 282 3.0 4.0 0.00 0.00 0.00
20220118032453 36 284 4.0 6.0 0.00 0.00 0.00
20220118032051 34 288 5.0 8.0 0.00 0.00 0.00
20220118031650 34 288 5.0 8.0 0.00 0.00 0.00
20220118031249 33 288 6.0 8.0 0.00 0.00 0.00
20220118030846 34 288 5.0 8.0 0.00 0.00 0.00
20220118030438 34 292 5.0 8.0 0.00 0.00 0.00
20220118030036 33 286 7.0 10.0 0.00 0.00 0.00
20220118025635 34 283 5.0 10.0 0.00 0.00 0.00
20220118025234 34 285 5.0 7.0 0.00 0.00 0.00
20220118024831 33 290 5.0 10.0 0.00 0.00 0.00
20220118024429 33 288 4.0 6.0 0.00 0.00 0.00
20220118024028 33 297 4.0 8.0 0.00 0.00 0.00
20220118023626 34 292 6.0 9.0 0.00 0.00 0.00
20220118023225 33 295 6.0 11.0 0.00 0.00 0.00
20220118022822 33 298 6.0 11.0 0.00 0.00 0.00
20220118022012 32 293 7.0 10.0 0.00 0.00 0.00
20220118021610 32 295 5.0 9.0 0.00 0.00 0.00
20220118021209 32 293 7.0 10.0 0.00 0.00 0.00
20220118020807 32 296 4.0 6.0 0.00 0.00 0.00
20220118020406 32 292 6.0 11.0 0.00 0.00 0.00
20220118020007 32 295 6.0 8.0 0.00 0.00 0.00
20220118015703 32 291 4.0 8.0 0.00 0.00 0.00
20220118015602 32 291 4.0 8.0 0.00 0.00 0.00
20220118015201 32 289 4.0 10.0 0.00 0.00 0.00
20220118014801 32 286 4.0 6.0 0.00 0.00 0.00
20220118014350 33 287 5.0 9.0 0.00 0.00 0.00
20220118013948 33 285 5.0 9.0 0.00 0.00 0.00
20220118013547 33 293 6.0 9.0 0.00 0.00 0.00
20220118013201 32 286 5.0 9.0 0.00 0.00 0.00
20220118013145 32 286 5.0 9.0 0.00 0.00 0.00
20220118012743 32 298 5.0 8.0 0.00 0.00 0.00
20220118012340 33 292 5.0 7.0 0.00 0.00 0.00
20220118011938 33 292 6.0 10.0 0.00 0.00 0.00
20220118011537 33 300 7.0 12.0 0.00 0.00 0.00
20220118005923 33 296 7.0 10.0 0.00 0.00 0.00
20220118005522 33 295 8.0 11.0 0.00 0.00 0.00
20220118005120 34 292 7.0 11.0 0.00 0.00 0.00
20220118004718 34 299 7.0 11.0 0.00 0.00 0.00
20220118004317 33 299 6.0 10.0 0.00 0.00 0.00
20220118003513 34 287 6.0 10.0 0.00 0.00 0.00
20220118002708 34 290 5.0 8.0 0.00 0.00 0.00
20220118002300 34 289 6.0 9.0 0.00 0.00 0.00
20220118001859 34 295 6.0 10.0 0.00 0.00 0.00
20220118001456 34 296 5.0 9.0 0.00 0.00 0.00
20220118001055 34 302 5.0 8.0 0.00 0.00 0.00
20220118000653 34 293 5.0 6.0 0.00 0.00 0.00
20220118000254 35 289 5.0 8.0 0.00 0.00 0.00
20220117235849 34 291 7.0 10.0 0.00 0.00 0.00
20220117235448 34 303 7.0 13.0 0.00 0.00 0.00
20220117235047 34 300 6.0 10.0 0.00 0.00 0.00
20220117234645 34 303 9.0 14.0 0.00 0.00 0.00
20220117234236 34 290 6.0 9.0 0.00 0.00 0.00
20220117233834 35 297 8.0 11.0 0.00 0.00 0.00
20220117233433 34 301 6.0 9.0 0.00 0.00 0.00
20220117233032 34 309 6.0 11.0 0.00 0.00 0.00
20220117232631 34 296 6.0 9.0 0.00 0.00 0.00
20220117232228 36 296 8.0 14.0 0.00 0.00 0.00
20220117231827 34 290 9.0 11.0 0.00 0.00 0.00
20220117231426 34 289 8.0 14.0 0.00 0.00 0.00
20220117231025 34 290 7.0 12.0 0.00 0.00 0.00
20220117230622 35 299 6.0 11.0 0.00 0.00 0.00
20220117230214 34 287 5.0 8.0 0.00 0.00 0.00
20220117225811 34 300 7.0 13.0 0.00 0.00 0.00
20220117225008 35 290 6.0 10.0 0.00 0.00 0.00
20220117224606 34 295 8.0 10.0 0.00 0.00 0.00
20220117224204 35 278 5.0 8.0 0.00 0.00 0.00
20220117223359 34 295 6.0 10.0 0.00 0.00 0.00
20220117222958 34 295 8.0 11.0 0.00 0.00 0.00
20220117222557 35 287 5.0 9.0 0.00 0.00 0.00
20220117222149 35 288 6.0 10.0 0.00 0.00 0.00
20220117221747 34 304 8.0 13.0 0.00 0.00 0.00
20220117221345 34 298 6.0 12.0 0.00 0.00 0.00
20220117220943 34 295 7.0 13.0 0.00 0.00 0.00
20220117220541 34 290 7.0 11.0 0.00 0.00 0.00
20220117220140 34 290 8.0 14.0 0.00 0.00 0.00
20220117215737 34 292 7.0 13.0 0.00 0.00 0.00
20220117215336 34 300 8.0 14.0 0.00 0.00 0.00
20220117214935 34 290 11.0 16.0 0.00 0.00 0.00
20220117214534 36 282 8.0 13.0 0.00 0.00 0.00
20220117214125 34 290 7.0 10.0 0.00 0.00 0.00
20220117213723 34 286 7.0 10.0 0.00 0.00 0.00
20220117213322 34 295 9.0 12.0 0.00 0.00 0.00
20220117212921 34 294 11.0 16.0 0.00 0.00 0.00
20220117212117 35 290 6.0 9.0 0.00 0.00 0.00
20220117211715 34 289 6.0 7.0 0.00 0.00 0.00
20220117211314 34 307 7.0 10.0 0.00 0.00 0.00
20220117210913 34 286 9.0 16.0 0.00 0.00 0.00
20220117210510 34 297 8.0 11.0 0.00 0.00 0.00
20220117210102 35 283 7.0 12.0 0.00 0.00 0.00
20220117205259 35 303 7.0 10.0 0.00 0.00 0.00
20220117204455 35 283 5.0 7.0 0.00 0.00 0.00
20220117204054 34 286 6.0 10.0 0.00 0.00 0.00
20220117203652 34 287 8.0 12.0 0.00 0.00 0.00
20220117203250 34 294 7.0 10.0 0.00 0.00 0.00
20220117202849 35 283 8.0 11.0 0.00 0.00 0.00
20220117202039 34 296 8.0 10.0 0.00 0.00 0.00
20220117201235 34 289 6.0 10.0 0.00 0.00 0.00
20220117200834 34 289 7.0 9.0 0.00 0.00 0.00
20220117200432 35 289 6.0 10.0 0.00 0.00 0.00
20220117200031 34 293 7.0 11.0 0.00 0.00 0.00
20220117195628 34 294 7.0 15.0 0.00 0.00 0.00
20220117195227 35 289 7.0 11.0 0.00 0.00 0.00
20220117194826 34 295 7.0 9.0 0.00 0.00 0.00
20220117194425 35 289 7.0 10.0 0.00 0.00 0.00
20220117194015 34 290 7.0 10.0 0.00 0.00 0.00
20220117193613 35 298 8.0 14.0 0.00 0.00 0.00
20220117193212 34 297 7.0 10.0 0.00 0.00 0.00
20220117192811 34 289 8.0 16.0 0.00 0.00 0.00
20220117192408 34 288 7.0 13.0 0.00 0.00 0.00
20220117191606 35 289 7.0 11.0 0.00 0.00 0.00
20220117191205 34 292 7.0 11.0 0.00 0.00 0.00
20220117190400 34 299 8.0 12.0 0.00 0.00 0.00
20220117185952 35 278 8.0 11.0 0.00 0.00 0.00
20220117185550 34 289 7.0 13.0 0.00 0.00 0.00
20220117184747 34 289 7.0 12.0 0.00 0.00 0.00
20220117184345 34 293 6.0 10.0 0.00 0.00 0.00
20220117183944 34 297 9.0 14.0 0.00 0.00 0.00
20220117183543 35 293 7.0 13.0 0.00 0.00 0.00
20220117183141 34 296 7.0 11.0 0.00 0.00 0.00
20220117182740 34 301 10.0 20.0 0.00 0.00 0.00
20220117182338 34 298 7.0 11.0 0.00 0.00 0.00
20220117182011 34 299 7.0 10.0 0.00 0.00 0.00
20220117181929 34 299 7.0 10.0 0.00 0.00 0.00
20220117181526 34 302 10.0 14.0 0.00 0.00 0.00
20220117181126 34 305 7.0 12.0 0.00 0.00 0.00
20220117180725 34 297 8.0 12.0 0.00 0.00 0.00
20220117180323 35 297 9.0 17.0 0.00 0.00 0.00
20220117175921 34 295 10.0 15.0 0.00 0.00 0.00
20220117175519 34 300 7.0 14.0 0.00 0.00 0.00
20220117175118 34 293 8.0 11.0 0.00 0.00 0.00
20220117174717 34 294 9.0 13.0 0.00 0.00 0.00
20220117174315 35 292 6.0 9.0 0.00 0.00 0.00
20220117173906 35 286 7.0 11.0 0.00 0.00 0.00
20220117173102 34 290 10.0 17.0 0.00 0.00 0.00
20220117172701 35 297 7.0 11.0 0.00 0.00 0.00
20220117171857 34 287 9.0 13.0 0.00 0.00 0.00
20220117171455 34 307 6.0 12.0 0.00 0.00 0.00
20220117171054 34 310 9.0 14.0 0.00 0.00 0.00
20220117170652 33 298 9.0 12.0 0.00 0.00 0.00
20220117170250 34 300 9.0 13.0 0.00 0.00 0.00
20220117165037 34 302 7.0 11.0 0.00 0.00 0.00
20220117164636 34 295 9.0 13.0 0.00 0.00 0.00
20220117164234 34 293 10.0 16.0 0.00 0.00 0.00
20220117163833 34 310 11.0 17.0 0.00 0.00 0.00
20220117163431 34 296 7.0 11.0 0.00 0.00 0.00
20220117163029 33 288 9.0 13.0 0.00 0.00 0.00
20220117162628 34 296 6.0 10.0 0.00 0.00 0.00
20220117162226 34 291 9.0 15.0 0.00 0.00 0.00
20220117161818 34 300 7.0 11.0 0.00 0.00 0.00
20220117161415 34 300 7.0 15.0 0.00 0.00 0.00
20220117161013 34 297 8.0 13.0 0.00 0.00 0.00
20220117160612 34 295 7.0 12.0 0.00 0.00 0.00
20220117160211 34 297 9.0 16.0 0.00 0.00 0.00
20220117155808 34 290 10.0 18.0 0.00 0.00 0.00
20220117155407 35 285 11.0 18.0 0.00 0.00 0.00
20220117155006 35 290 9.0 13.0 0.00 0.00 0.00
20220117154201 36 282 4.0 9.0 0.00 0.00 0.00
20220117153753 34 295 5.0 8.0 0.00 0.00 0.00
20220117153353 35 298 7.0 10.0 0.00 0.00 0.00
20220117153351 35 298 7.0 10.0 0.00 0.00 0.00
20220117152950 36 289 4.0 7.0 0.00 0.00 0.00
20220117152549 35 295 5.0 13.0 0.00 0.00 0.00
20220117152146 34 300 7.0 11.0 0.00 0.00 0.00
20220117151745 35 293 7.0 12.0 0.00 0.00 0.00
20220117150942 35 297 7.0 12.0 0.00 0.00 0.00
20220117150539 35 295 6.0 9.0 0.00 0.00 0.00
20220117150156 34 294 8.0 14.0 0.00 0.00 0.00
20220117150137 34 294 8.0 14.0 0.00 0.00 0.00
20220117145729 35 284 10.0 16.0 0.00 0.00 0.00
20220117145329 35 295 11.0 15.0 0.00 0.00 0.00
20220117144926 35 291 9.0 12.0 0.00 0.00 0.00
20220117144525 35 284 8.0 14.0 0.00 0.00 0.00
20220117144123 35 287 10.0 15.0 0.00 0.00 0.00
20220117143722 34 291 10.0 16.0 0.00 0.00 0.00
20220117143318 34 284 6.0 9.0 0.00 0.00 0.00
20220117142917 34 289 11.0 17.0 0.00 0.00 0.00
20220117142516 34 285 8.0 13.0 0.00 0.00 0.00
20220117142114 34 294 9.0 14.0 0.00 0.00 0.00
20220117141706 35 298 11.0 16.0 0.00 0.00 0.00
20220117141303 35 293 12.0 19.0 0.00 0.00 0.00
20220117140902 34 293 9.0 15.0 0.00 0.00 0.00
20220117140501 34 291 12.0 18.0 0.00 0.00 0.00
20220117140100 34 304 12.0 22.0 0.00 0.00 0.00
20220117135656 35 305 10.0 16.0 0.00 0.00 0.00
20220117135255 35 319 11.0 16.0 0.00 0.00 0.00
20220117134854 36 321 7.0 12.0 0.00 0.00 0.00
20220117134452 35 322 7.0 14.0 0.00 0.00 0.00
20220117134049 36 324 10.0 18.0 0.00 0.00 0.00
20220117133641 36 313 9.0 20.0 0.00 0.00 0.00
20220117133240 36 325 11.0 19.0 0.00 0.00 0.00
20220117132838 36 320 11.0 19.0 0.00 0.00 0.00
20220117132436 36 316 13.0 25.0 0.00 0.00 0.00
20220117132034 36 310 15.0 26.0 0.00 0.00 0.00
20220117131634 37 283 17.0 25.0 0.00 0.00 0.00
20220117131231 38 281 14.0 23.0 0.00 0.00 0.00
20220117130429 40 245 11.0 21.0 0.00 0.00 0.00
20220117130026 40 255 11.0 22.0 0.00 0.00 0.00
20220117125618 40 258 15.0 25.0 0.00 0.00 0.00
20220117125216 40 256 15.0 20.0 0.00 0.00 0.00
20220117124814 40 251 12.0 20.0 0.00 0.00 0.00
20220117124413 39 258 15.0 24.0 0.00 0.00 0.00
20220117124011 39 254 14.0 25.0 0.00 0.00 0.00
20220117123610 39 264 17.0 22.0 0.00 0.00 0.00
20220117123207 39 263 13.0 21.0 0.00 0.00 0.00
20220117122805 39 266 12.0 23.0 0.00 0.00 0.00
20220117121148 39 260 13.0 19.0 0.00 0.00 0.00
20220117120747 39 262 14.0 22.0 0.00 0.00 0.00
20220117120346 39 254 19.0 28.0 0.00 0.00 0.00
20220117115944 39 261 17.0 23.0 0.00 0.00 0.00
20220117115542 39 260 15.0 24.0 0.00 0.00 0.00
20220117115139 39 254 17.0 27.0 0.00 0.00 0.00
20220117114739 39 263 15.0 22.0 0.00 0.00 0.00
20220117114337 39 255 13.0 18.0 0.00 0.00 0.00
20220117113934 39 242 16.0 28.0 0.00 0.00 0.00
20220117113526 40 253 13.0 29.0 0.00 0.00 0.00
20220117113124 39 256 12.0 18.0 0.00 0.00 0.00
20220117112724 39 259 9.0 17.0 0.00 0.00 0.00
20220117112325 40 255 15.0 25.0 0.00 0.00 0.00
20220117111919 40 257 19.0 30.0 0.00 0.00 0.00
20220117111518 41 261 16.0 26.0 0.00 0.00 0.00
20220117111117 41 258 19.0 32.0 0.00 0.00 0.00
20220117110313 41 254 16.0 24.0 0.00 0.00 0.00
20220117105911 42 252 18.0 28.0 0.00 0.00 0.00
20220117105503 42 253 15.0 24.0 0.00 0.00 0.00
20220117105102 42 262 18.0 26.0 0.00 0.00 0.00
20220117104659 42 252 19.0 27.0 0.00 0.00 0.00
20220117103857 42 254 18.0 26.0 0.00 0.00 0.00
20220117103456 42 260 17.0 30.0 0.00 0.00 0.00
20220117103053 42 248 15.0 21.0 0.00 0.00 0.00
20220117102652 42 248 12.0 21.0 0.00 0.00 0.00
20220117102251 42 262 14.0 26.0 0.00 0.00 0.00